| time (UTC) | temp C | wind direction | speed KPH | gust KPH | rain 1hr cm | rain 24hr cm | rain mn cm | humidity % | barometer mb |
| 20260503200303 | -17 | 341 | 0.0 | 0.0 | 0.00 | 0.00 | 0.00 | 1019.1 | |
| 20260503200203 | 17 | 244 | 4.8 | 12.9 | 0.00 | 0.00 | 0.00 | 35 | 1017.9 |
| 20260503200035 | 12 | 296 | 4.8 | 8.0 | 0.00 | 0.05 | 0.05 | 86 | 1013.1 |
| 20260503195801 | -17 | 242 | 4.8 | 4.8 | 0.00 | 0.00 | 0.00 | 1019.2 | |
| 20260503195704 | 17 | 247 | 9.7 | 16.1 | 0.00 | 0.00 | 0.00 | 36 | 1017.9 |
| 20260503195258 | -17 | 33 | 4.8 | 4.8 | 0.00 | 0.00 | 0.00 | 1019.4 | |
| 20260503195203 | 18 | 280 | 3.2 | 11.3 | 0.00 | 0.00 | 0.00 | 36 | 1018.0 |
| 20260503194755 | -17 | 71 | 3.2 | 4.8 | 0.00 | 0.00 | 0.00 | 1019.5 | |
| 20260503194703 | 18 | 254 | 8.0 | 19.3 | 0.00 | 0.00 | 0.00 | 36 | 1018.0 |
| 20260503194533 | 13 | 294 | 4.8 | 6.4 | 0.00 | 0.05 | 0.05 | 86 | 1012.9 |
| 20260503194251 | -17 | 38 | 3.2 | 3.2 | 0.00 | 0.00 | 0.00 | 1019.5 | |
| 20260503194203 | 17 | 297 | 6.4 | 19.3 | 0.00 | 0.00 | 0.00 | 37 | 1018.1 |
| 20260503193747 | -17 | 0 | 0.0 | 1.6 | 0.00 | 0.00 | 0.00 | 1019.5 | |
| 20260503193243 | -17 | 245 | 1.6 | 3.2 | 0.00 | 0.00 | 0.00 | 1019.7 | |
| 20260503193204 | 17 | 351 | 6.4 | 22.5 | 0.00 | 0.00 | 0.00 | 37 | 1018.1 |
| 20260503193031 | 13 | 303 | 4.8 | 6.4 | 0.00 | 0.05 | 0.05 | 85 | 1012.7 |
| 20260503192739 | -17 | 277 | 3.2 | 4.8 | 0.00 | 0.00 | 0.00 | 1019.8 | |
| 20260503192703 | 17 | 250 | 12.9 | 29.0 | 0.00 | 0.00 | 0.00 | 38 | 1018.3 |
| 20260503192234 | -17 | 33 | 3.2 | 3.2 | 0.00 | 0.00 | 0.00 | 1019.7 | |
| 20260503192204 | 17 | 251 | 8.0 | 16.1 | 0.00 | 0.00 | 0.00 | 36 | 1018.4 |
| 20260503191731 | -17 | 65 | 1.6 | 1.6 | 0.00 | 0.00 | 0.00 | 1019.8 | |
| 20260503191703 | 16 | 297 | 9.7 | 22.5 | 0.00 | 0.00 | 0.00 | 38 | 1018.5 |
| 20260503191531 | 14 | 300 | 6.4 | 9.7 | 0.00 | 0.05 | 0.05 | 83 | 1012.4 |
| 20260503191228 | -17 | 344 | 3.2 | 4.8 | 0.00 | 0.00 | 0.00 | 1020.0 | |
| 20260503190726 | -17 | 342 | 1.6 | 1.6 | 0.00 | 0.00 | 0.00 | 1020.0 | |
| 20260503190704 | 17 | 244 | 9.7 | 22.5 | 0.00 | 0.00 | 0.00 | 37 | 1018.5 |
| 20260503190222 | -17 | 50 | 1.6 | 3.2 | 0.00 | 0.00 | 0.00 | 1020.2 | |
| 20260503190204 | 17 | 308 | 8.0 | 12.9 | 0.00 | 0.00 | 0.00 | 37 | 1018.6 |
| 20260503190035 | 15 | 299 | 4.8 | 12.9 | 0.00 | 0.05 | 0.05 | 81 | 1012.5 |
| 20260503185719 | -17 | 84 | 1.6 | 1.6 | 0.00 | 0.00 | 0.00 | 1020.3 | |
| 20260503185704 | 17 | 287 | 6.4 | 25.7 | 0.00 | 0.00 | 0.00 | 38 | 1018.7 |
| 20260503185215 | -17 | 309 | 4.8 | 8.0 | 0.00 | 0.00 | 0.00 | 1020.5 | |
| 20260503185204 | 16 | 275 | 11.3 | 22.5 | 0.00 | 0.00 | 0.00 | 40 | 1018.7 |
| 20260503184709 | -17 | 25 | 1.6 | 3.2 | 0.00 | 0.00 | 0.00 | 1020.4 | |
| 20260503184703 | 15 | 226 | 12.9 | 35.4 | 0.00 | 0.00 | 0.00 | 38 | 1018.7 |
| 20260503184539 | 16 | 290 | 4.8 | 14.5 | 0.00 | 0.05 | 0.05 | 80 | 1012.5 |
| 20260503184206 | -17 | 56 | 3.2 | 4.8 | 0.00 | 0.00 | 0.00 | 1020.5 | |
| 20260503184204 | 16 | 258 | 9.7 | 24.1 | 0.00 | 0.00 | 0.00 | 39 | 1018.7 |
| 20260503183703 | -17 | 16 | 6.4 | 8.0 | 0.00 | 0.00 | 0.00 | 1020.5 | |
| 20260503183204 | 16 | 261 | 11.3 | 20.9 | 0.00 | 0.00 | 0.00 | 38 | 1018.8 |
| 20260503183200 | -17 | 306 | 0.0 | 0.0 | 0.00 | 0.00 | 0.00 | 1020.6 | |
| 20260503183029 | 16 | 300 | 8.0 | 14.5 | 0.00 | 0.05 | 0.05 | 79 | 1012.4 |
| 20260503182704 | 17 | 317 | 3.2 | 12.9 | 0.00 | 0.00 | 0.00 | 41 | 1018.7 |
| 20260503182658 | -17 | 281 | 3.2 | 3.2 | 0.00 | 0.00 | 0.00 | 1020.8 | |
| 20260503182203 | 17 | 342 | 4.8 | 16.1 | 0.00 | 0.00 | 0.00 | 37 | 1018.7 |
| 20260503182156 | -17 | 27 | 4.8 | 4.8 | 0.00 | 0.00 | 0.00 | 1020.6 | |
| 20260503181703 | 16 | 237 | 8.0 | 22.5 | 0.00 | 0.00 | 0.00 | 40 | 1018.9 |
| 20260503181652 | -17 | 262 | 3.2 | 3.2 | 0.00 | 0.00 | 0.00 | 1020.8 | |
| 20260503181529 | 16 | 311 | 6.4 | 12.9 | 0.00 | 0.05 | 0.05 | 78 | 1012.4 |
| 20260503181204 | 16 | 262 | 12.9 | 22.5 | 0.00 | 0.00 | 0.00 | 39 | 1019.0 |
| 20260503181149 | -17 | 121 | 4.8 | 4.8 | 0.00 | 0.00 | 0.00 | 1020.9 | |
| 20260503180703 | 16 | 266 | 6.4 | 29.0 | 0.00 | 0.00 | 0.00 | 38 | 1019.0 |
| 20260503180646 | -17 | 35 | 1.6 | 4.8 | 0.00 | 0.00 | 0.00 | 1020.8 | |
| 20260503180144 | -17 | 18 | 3.2 | 8.0 | 0.00 | 0.00 | 0.00 | 1020.9 | |
| 20260503180035 | 17 | 308 | 6.4 | 9.7 | 0.00 | 0.05 | 0.05 | 78 | 1012.3 |
| 20260503175641 | -17 | 352 | 3.2 | 3.2 | 0.00 | 0.00 | 0.00 | 1020.8 | |
| 20260503175203 | 16 | 247 | 8.0 | 16.1 | 0.00 | 0.00 | 0.00 | 40 | 1018.8 |
| 20260503175138 | -17 | 267 | 3.2 | 4.8 | 0.00 | 0.00 | 0.00 | 1020.7 | |
| 20260503174704 | 16 | 240 | 9.7 | 24.1 | 0.00 | 0.00 | 0.00 | 41 | 1019.0 |
| 20260503174634 | -17 | 64 | 1.6 | 1.6 | 0.00 | 0.00 | 0.00 | 1020.9 | |
| 20260503174532 | 17 | 347 | 4.8 | 14.5 | 0.00 | 0.05 | 0.05 | 77 | 1012.4 |
| 20260503174204 | 16 | 292 | 8.0 | 25.7 | 0.00 | 0.00 | 0.00 | 41 | 1019.0 |
| 20260503174132 | -17 | 9 | 1.6 | 1.6 | 0.00 | 0.00 | 0.00 | 1021.1 | |
| 20260503173704 | 16 | 238 | 11.3 | 29.0 | 0.00 | 0.03 | 0.00 | 39 | 1019.1 |
| 20260503173627 | -17 | 31 | 3.2 | 4.8 | 0.00 | 0.00 | 0.00 | 1021.0 | |
| 20260503173204 | 15 | 244 | 12.9 | 24.1 | 0.00 | 0.03 | 0.00 | 40 | 1019.2 |
| 20260503173123 | -17 | 311 | 6.4 | 11.3 | 0.00 | 0.00 | 0.00 | 1021.2 | |
| 20260503173034 | 17 | 315 | 6.4 | 14.5 | 0.00 | 0.05 | 0.05 | 78 | 1012.2 |
| 20260503172703 | 16 | 252 | 9.7 | 32.2 | 0.00 | 0.03 | 0.00 | 42 | 1019.1 |
| 20260503172620 | -17 | 256 | 4.8 | 9.7 | 0.00 | 0.00 | 0.00 | 1021.1 | |
| 20260503172118 | -17 | 41 | 3.2 | 3.2 | 0.00 | 0.00 | 0.00 | 1021.2 | |
| 20260503171614 | -17 | 298 | 3.2 | 3.2 | 0.00 | 0.00 | 0.00 | 1021.4 | |
| 20260503171529 | 17 | 317 | 8.0 | 14.5 | 0.00 | 0.05 | 0.05 | 79 | 1012.2 |
| 20260503171203 | 16 | 275 | 11.3 | 25.7 | 0.00 | 0.05 | 0.00 | 42 | 1019.3 |
| 20260503171112 | -17 | 350 | 1.6 | 3.2 | 0.00 | 0.00 | 0.00 | 1021.3 | |
| 20260503170704 | 15 | 235 | 19.3 | 32.2 | 0.00 | 0.05 | 0.00 | 41 | 1019.1 |
| 20260503170609 | -17 | 65 | 1.6 | 1.6 | 0.00 | 0.00 | 0.00 | 1021.5 | |
| 20260503170204 | 16 | 253 | 11.3 | 20.9 | 0.00 | 0.05 | 0.00 | 42 | 1019.2 |
| 20260503170105 | -17 | 62 | 1.6 | 3.2 | 0.00 | 0.00 | 0.00 | 1021.4 | |
| 20260503160204 | 15 | 245 | 8.0 | 19.3 | 0.00 | 0.13 | 0.00 | 44 | 1019.6 |
| 20260503151000 | -17 | 43 | 1.6 | 3.2 | 0.00 | 0.00 | 0.00 | 1022.4 | |
| 20260503150704 | 13 | 274 | 4.8 | 19.3 | 0.00 | 0.18 | 0.00 | 45 | 1019.8 |
| 20260503150456 | -17 | 121 | 3.2 | 4.8 | 0.00 | 0.00 | 0.00 | 1022.3 | |
| 20260503150204 | 13 | 237 | 9.7 | 20.9 | 0.00 | 0.18 | 0.00 | 44 | 1019.8 |
| 20260503140203 | 13 | 267 | 11.3 | 25.7 | 0.00 | 0.18 | 0.00 | 49 | 1019.6 |
| 20260503131349 | -17 | 28 | 0.0 | 0.0 | 0.00 | 0.00 | 0.00 | 1021.4 | |
| 20260503131204 | 13 | 319 | 4.8 | 14.5 | 0.00 | 0.20 | 0.00 | 49 | 1019.2 |
| 20260503130847 | -17 | 36 | 0.0 | 0.0 | 0.00 | 0.00 | 0.00 | 1021.4 | |
| 20260503130704 | 13 | 293 | 3.2 | 14.5 | 0.00 | 0.20 | 0.00 | 51 | 1019.2 |
| 20260503130344 | -17 | 23 | 0.0 | 0.0 | 0.00 | 0.00 | 0.00 | 1021.3 | |
| 20260503130203 | 12 | 328 | 4.8 | 14.5 | 0.00 | 0.20 | 0.00 | 50 | 1019.2 |
| 20260503110738 | -17 | 296 | 0.0 | 0.0 | 0.00 | 0.00 | 0.00 | 1020.5 | |
| 20260503110704 | 10 | 329 | 8.0 | 12.9 | 0.00 | 0.23 | 0.00 | 54 | 1017.8 |
| 20260503110236 | -17 | 351 | 0.0 | 0.0 | 0.00 | 0.00 | 0.00 | 1020.4 | |
| 20260503110203 | 10 | 312 | 8.0 | 12.9 | 0.00 | 0.23 | 0.00 | 54 | 1017.8 |
| 20260503100204 | 8 | 267 | 3.2 | 8.0 | 0.00 | 0.23 | 0.00 | 80 | 1016.5 |
| 20260503100202 | -17 | 315 | 0.0 | 0.0 | 0.00 | 0.00 | 0.00 | 1020.1 | |
| 20260503090204 | 7 | 272 | 3.2 | 3.2 | 0.00 | 0.23 | 0.00 | 87 | 1015.8 |
| 20260503090121 | -17 | 334 | 0.0 | 0.0 | 0.00 | 0.00 | 0.00 | 1019.7 | |
| 20260503090117 | 17 | 234 | 11.3 | 17.7 | 0.00 | 0.13 | 0.03 | 85 | 1013.4 |
| 20260503081601 | 17 | 273 | 9.7 | 17.7 | 0.00 | 0.15 | 0.03 | 86 | 1013.3 |
| 20260503081556 | -17 | 26 | 0.0 | 0.0 | 0.00 | 0.00 | 0.00 | 1019.5 | |
| 20260503081203 | 7 | 260 | 1.6 | 3.2 | 0.00 | 0.23 | 0.00 | 86 | 1015.4 |
| 20260503081054 | -17 | 8 | 0.0 | 0.0 | 0.00 | 0.00 | 0.00 | 1019.4 | |
| 20260503080703 | 7 | 254 | 1.6 | 3.2 | 0.00 | 0.23 | 0.00 | 85 | 1015.2 |
| 20260503080549 | -17 | 355 | 0.0 | 0.0 | 0.00 | 0.00 | 0.00 | 1019.4 | |
| 20260503080203 | 7 | 268 | 3.2 | 3.2 | 0.00 | 0.23 | 0.00 | 85 | 1015.1 |
| 20260503080107 | 17 | 273 | 9.7 | 12.9 | 0.00 | 0.15 | 0.03 | 88 | 1013.2 |
| 20260503072703 | 8 | 271 | 3.2 | 3.2 | 0.00 | 0.23 | 0.00 | 85 | 1014.8 |
| 20260503072523 | -17 | 351 | 0.0 | 0.0 | 0.00 | 0.00 | 0.00 | 1019.1 | |
| 20260503072204 | 7 | 267 | 3.2 | 4.8 | 0.00 | 0.23 | 0.00 | 85 | 1014.6 |
| 20260503072020 | -17 | 359 | 0.0 | 0.0 | 0.00 | 0.00 | 0.00 | 1019.2 | |
| 20260503071703 | 7 | 269 | 3.2 | 4.8 | 0.00 | 0.23 | 0.00 | 86 | 1014.7 |
| 20260503071604 | 16 | 223 | 8.0 | 11.3 | 0.00 | 0.20 | 0.03 | 91 | 1013.0 |
| 20260503071517 | -17 | 23 | 0.0 | 0.0 | 0.00 | 0.00 | 0.00 | 1019.2 | |
| 20260503071203 | 7 | 279 | 3.2 | 3.2 | 0.00 | 0.23 | 0.00 | 86 | 1014.8 |
| 20260503071014 | -17 | 326 | 1.6 | 1.6 | 0.00 | 0.00 | 0.00 | 1019.3 | |
| 20260503070511 | -17 | 2 | 0.0 | 0.0 | 0.00 | 0.00 | 0.00 | 1019.2 | |
| 20260503070204 | 7 | 269 | 3.2 | 4.8 | 0.00 | 0.23 | 0.00 | 86 | 1014.6 |
| 20260503060204 | 8 | 254 | 8.0 | 9.7 | 0.00 | 0.23 | 0.00 | 82 | 1014.3 |
| 20260503054922 | -17 | 341 | 0.0 | 0.0 | 0.00 | 0.00 | 0.00 | 1018.9 | |
| 20260503054704 | 8 | 264 | 3.2 | 4.8 | 0.00 | 0.23 | 0.00 | 84 | 1014.2 |
| 20260503054554 | 15 | 192 | 6.4 | 12.9 | 0.00 | 0.18 | 0.00 | 92 | 1012.7 |
| 20260503054419 | -17 | 353 | 0.0 | 0.0 | 0.00 | 0.00 | 0.00 | 1018.8 | |
| 20260503054203 | 8 | 262 | 3.2 | 4.8 | 0.00 | 0.23 | 0.00 | 82 | 1014.1 |
| 20260503053917 | -17 | 2 | 0.0 | 0.0 | 0.00 | 0.00 | 0.00 | 1018.9 | |
| 20260503053704 | 8 | 262 | 3.2 | 3.2 | 0.00 | 0.23 | 0.00 | 82 | 1014.1 |
| 20260503053414 | -17 | 6 | 0.0 | 0.0 | 0.00 | 0.00 | 0.00 | 1018.9 | |
| 20260503053204 | 8 | 254 | 3.2 | 3.2 | 0.00 | 0.23 | 0.00 | 82 | 1014.2 |
| 20260503053040 | 15 | 170 | 8.0 | 12.9 | 0.00 | 0.18 | 0.00 | 92 | 1012.6 |
| 20260503052910 | -17 | 352 | 0.0 | 0.0 | 0.00 | 0.00 | 0.00 | 1018.8 | |
| 20260503052704 | 8 | 276 | 1.6 | 4.8 | 0.00 | 0.23 | 0.00 | 83 | 1014.3 |
| 20260503052408 | -17 | 350 | 0.0 | 0.0 | 0.00 | 0.00 | 0.00 | 1018.8 | |
| 20260503052204 | 8 | 264 | 3.2 | 3.2 | 0.00 | 0.23 | 0.00 | 82 | 1014.4 |
| 20260503051904 | -17 | 335 | 0.0 | 0.0 | 0.00 | 0.00 | 0.00 | 1018.8 | |
| 20260503051704 | 9 | 266 | 3.2 | 3.2 | 0.00 | 0.23 | 0.00 | 82 | 1014.3 |
| 20260503051539 | 15 | 159 | 6.4 | 12.9 | 0.00 | 0.18 | 0.00 | 92 | 1012.5 |
| 20260503051400 | -17 | 356 | 0.0 | 0.0 | 0.00 | 0.00 | 0.00 | 1018.7 | |
| 20260503050857 | -17 | 19 | 1.6 | 1.6 | 0.00 | 0.00 | 0.00 | 1018.8 | |
| 20260503050353 | -17 | 358 | 0.0 | 0.0 | 0.00 | 0.00 | 0.00 | 1018.8 | |
| 20260503050204 | 9 | 255 | 3.2 | 4.8 | 0.00 | 0.23 | 0.00 | 81 | 1014.4 |
| 20260503050044 | 14 | 169 | 3.2 | 11.3 | 0.00 | 0.18 | 0.00 | 92 | 1012.4 |
| 20260503045851 | -17 | 359 | 0.0 | 0.0 | 0.00 | 1.93 | 1.93 | 1018.7 | |
| 20260503045704 | 10 | 237 | 1.6 | 3.2 | 0.00 | 0.23 | 0.00 | 79 | 1014.2 |
| 20260503045348 | -17 | 0 | 0.0 | 0.0 | 0.00 | 1.93 | 1.93 | 1018.6 | |
| 20260503045204 | 10 | 263 | 1.6 | 3.2 | 0.00 | 0.23 | 0.00 | 79 | 1014.3 |
| 20260503044845 | -17 | 357 | 0.0 | 0.0 | 0.00 | 1.93 | 1.93 | 1018.7 | |
| 20260503044549 | 14 | 170 | 8.0 | 12.9 | 0.00 | 0.18 | 0.00 | 92 | 1012.3 |
| 20260503044342 | -17 | 332 | 0.0 | 0.0 | 0.00 | 1.93 | 1.93 | 1018.6 | |
| 20260503044204 | 10 | 262 | 1.6 | 3.2 | 0.00 | 0.23 | 0.00 | 78 | 1014.4 |
| 20260503043839 | -17 | 318 | 0.0 | 1.6 | 0.00 | 1.93 | 1.93 | 1018.6 | |
| 20260503043703 | 10 | 254 | 1.6 | 3.2 | 0.00 | 0.23 | 0.00 | 77 | 1014.4 |
| 20260503043336 | -17 | 339 | 0.0 | 0.0 | 0.00 | 1.93 | 1.93 | 1018.6 | |
| 20260503043044 | 14 | 163 | 6.4 | 14.5 | 0.00 | 0.18 | 0.00 | 92 | 1012.3 |
| 20260503042832 | -17 | 331 | 0.0 | 0.0 | 0.00 | 1.93 | 1.93 | 1018.6 | |
| 20260503042703 | 10 | 267 | 3.2 | 3.2 | 0.00 | 0.23 | 0.00 | 75 | 1014.4 |
| 20260503042329 | -17 | 325 | 0.0 | 1.6 | 0.00 | 1.93 | 1.93 | 1018.6 | |
| 20260503042204 | 10 | 255 | 3.2 | 3.2 | 0.00 | 0.23 | 0.00 | 75 | 1014.3 |
| 20260503041825 | -17 | 334 | 0.0 | 0.0 | 0.00 | 1.93 | 1.93 | 1018.6 | |
| 20260503041703 | 10 | 271 | 3.2 | 4.8 | 0.00 | 0.23 | 0.00 | 77 | 1014.6 |
| 20260503041535 | 14 | 161 | 6.4 | 11.3 | 0.00 | 0.18 | 0.00 | 92 | 1012.4 |
| 20260503041322 | -17 | 354 | 0.0 | 0.0 | 0.00 | 1.93 | 1.93 | 1018.4 | |
| 20260503041203 | 10 | 265 | 3.2 | 3.2 | 0.00 | 0.23 | 0.00 | 78 | 1014.4 |
| 20260503040820 | -17 | 352 | 0.0 | 0.0 | 0.00 | 1.93 | 1.93 | 1018.5 | |
| 20260503040703 | 10 | 268 | 1.6 | 3.2 | 0.00 | 0.23 | 0.00 | 79 | 1014.3 |
| 20260503040317 | -17 | 358 | 0.0 | 0.0 | 0.00 | 1.93 | 1.93 | 1018.6 | |
| 20260503040204 | 10 | 245 | 3.2 | 4.8 | 0.00 | 0.23 | 0.00 | 78 | 1014.5 |
| 20260503040039 | 14 | 138 | 6.4 | 12.9 | 0.00 | 0.18 | 0.00 | 92 | 1012.4 |
| 20260503035814 | -17 | 359 | 0.0 | 0.0 | 0.00 | 1.93 | 1.93 | 1018.5 | |
| 20260503035311 | -17 | 344 | 0.0 | 0.0 | 0.00 | 1.93 | 1.93 | 1018.5 | |
| 20260503035204 | 10 | 261 | 3.2 | 3.2 | 0.00 | 0.23 | 0.23 | 78 | 1014.4 |
| 20260503034808 | -17 | 328 | 0.0 | 0.0 | 0.00 | 1.93 | 1.93 | 1018.5 | |
| 20260503034704 | 10 | 272 | 3.2 | 3.2 | 0.00 | 0.23 | 0.23 | 77 | 1014.5 |
| 20260503034534 | 14 | 176 | 9.7 | 14.5 | 0.00 | 0.18 | 0.00 | 92 | 1012.6 |
| 20260503034305 | -17 | 326 | 0.0 | 0.0 | 0.00 | 1.93 | 1.93 | 1018.3 | |
| 20260503034203 | 10 | 271 | 3.2 | 4.8 | 0.00 | 0.23 | 0.23 | 77 | 1014.5 |
| 20260503033803 | -17 | 352 | 0.0 | 0.0 | 0.00 | 1.93 | 1.93 | 1018.2 | |
| 20260503033703 | 11 | 253 | 3.2 | 3.2 | 0.00 | 0.23 | 0.23 | 76 | 1014.4 |
| 20260503033300 | -17 | 336 | 0.0 | 0.0 | 0.00 | 1.93 | 1.93 | 1018.3 | |
| 20260503033203 | 11 | 249 | 3.2 | 3.2 | 0.00 | 0.23 | 0.23 | 74 | 1014.4 |
| 20260503033032 | 13 | 156 | 8.0 | 12.9 | 0.00 | 0.18 | 0.00 | 92 | 1012.6 |
| 20260503032758 | -17 | 357 | 0.0 | 0.0 | 0.00 | 1.93 | 1.93 | 1018.1 | |
| 20260503032704 | 11 | 260 | 3.2 | 4.8 | 0.00 | 0.23 | 0.23 | 74 | 1014.3 |
| 20260503032257 | -17 | 345 | 0.0 | 0.0 | 0.00 | 1.93 | 1.93 | 1018.2 | |
| 20260503032203 | 11 | 193 | 1.6 | 4.8 | 0.00 | 0.23 | 0.23 | 74 | 1014.2 |
| 20260503031753 | -17 | 355 | 0.0 | 0.0 | 0.00 | 1.93 | 1.93 | 1018.0 | |
| 20260503031703 | 11 | 236 | 3.2 | 4.8 | 0.00 | 0.23 | 0.23 | 75 | 1014.3 |
| 20260503031534 | 13 | 134 | 6.4 | 12.9 | 0.00 | 0.18 | 0.00 | 92 | 1012.7 |
| 20260503031251 | -17 | 349 | 0.0 | 0.0 | 0.00 | 1.93 | 1.93 | 1018.0 | |
| 20260503031204 | 11 | 245 | 1.6 | 3.2 | 0.00 | 0.23 | 0.23 | 74 | 1014.2 |
| 20260503030747 | -17 | 347 | 0.0 | 0.0 | 0.00 | 1.93 | 1.93 | 1017.9 | |
| 20260503030244 | -17 | 349 | 0.0 | 0.0 | 0.00 | 1.93 | 1.93 | 1017.9 | |
| 20260503030203 | 11 | 236 | 1.6 | 3.2 | 0.00 | 0.23 | 0.23 | 71 | 1014.2 |
| 20260503030030 | 13 | 143 | 6.4 | 9.7 | 0.00 | 0.18 | 0.00 | 91 | 1012.9 |
| 20260503025741 | -17 | 350 | 0.0 | 0.0 | 0.00 | 1.93 | 1.93 | 1017.9 | |
| 20260503025704 | 11 | 274 | 1.6 | 3.2 | 0.00 | 0.23 | 0.23 | 73 | 1014.2 |
| 20260503025238 | -17 | 312 | 0.0 | 1.6 | 0.00 | 1.93 | 1.93 | 1017.8 | |
| 20260503025203 | 11 | 261 | 1.6 | 3.2 | 0.00 | 0.23 | 0.23 | 73 | 1014.2 |
| 20260503024735 | -17 | 340 | 0.0 | 0.0 | 0.00 | 1.93 | 1.93 | 1017.8 | |
| 20260503024704 | 11 | 233 | 1.6 | 3.2 | 0.00 | 0.23 | 0.23 | 72 | 1014.5 |
| 20260503024530 | 13 | 141 | 6.4 | 8.0 | 0.00 | 0.18 | 0.00 | 91 | 1012.8 |
| 20260503024232 | -17 | 330 | 1.6 | 1.6 | 0.00 | 1.93 | 1.93 | 1017.9 | |
| 20260503024204 | 11 | 219 | 1.6 | 3.2 | 0.00 | 0.23 | 0.23 | 73 | 1014.4 |
| 20260503023729 | -17 | 353 | 0.0 | 0.0 | 0.00 | 1.93 | 1.93 | 1017.7 | |
| 20260503023704 | 11 | 243 | 3.2 | 3.2 | 0.00 | 0.23 | 0.23 | 74 | 1014.5 |
| 20260503023226 | -17 | 359 | 0.0 | 0.0 | 0.00 | 1.93 | 1.93 | 1017.6 | |
| 20260503023203 | 11 | 253 | 3.2 | 4.8 | 0.00 | 0.23 | 0.23 | 73 | 1014.6 |
| 20260503023029 | 13 | 127 | 4.8 | 9.7 | 0.00 | 0.18 | 0.00 | 91 | 1012.8 |
| 20260503022722 | -17 | 359 | 0.0 | 0.0 | 0.00 | 1.93 | 1.93 | 1017.5 | |
| 20260503022704 | 11 | 250 | 3.2 | 3.2 | 0.00 | 0.23 | 0.23 | 73 | 1014.4 |
| 20260503022222 | -17 | 351 | 0.0 | 0.0 | 0.00 | 1.93 | 1.93 | 1017.5 | |
| 20260503022203 | 11 | 251 | 3.2 | 3.2 | 0.00 | 0.23 | 0.23 | 72 | 1014.4 |
| 20260503021719 | -17 | 0 | 0.0 | 0.0 | 0.00 | 1.93 | 1.93 | 1017.7 | |
| 20260503021704 | 11 | 254 | 1.6 | 3.2 | 0.00 | 0.23 | 0.23 | 75 | 1014.4 |
| 20260503021527 | 13 | 120 | 4.8 | 8.0 | 0.00 | 0.18 | 0.00 | 91 | 1012.9 |
| 20260503021215 | -17 | 2 | 0.0 | 0.0 | 0.00 | 1.93 | 1.93 | 1017.5 | |
| 20260503021203 | 11 | 246 | 3.2 | 3.2 | 0.00 | 0.23 | 0.23 | 73 | 1014.5 |
| 20260503020713 | -17 | 354 | 0.0 | 0.0 | 0.00 | 1.93 | 1.93 | 1017.3 | |
| 20260503020704 | 11 | 249 | 1.6 | 3.2 | 0.00 | 0.23 | 0.23 | 70 | 1014.3 |
| 20260503020210 | -17 | 338 | 0.0 | 0.0 | 0.00 | 1.93 | 1.93 | 1017.4 | |
| 20260503020204 | 11 | 252 | 3.2 | 3.2 | 0.00 | 0.23 | 0.23 | 72 | 1014.4 |
| 20260503020027 | 13 | 124 | 1.6 | 3.2 | 0.00 | 0.18 | 0.00 | 91 | 1013.0 |
| 20260503015707 | -17 | 348 | 0.0 | 0.0 | 0.00 | 1.93 | 1.93 | 1017.4 | |
| 20260503015704 | 11 | 268 | 3.2 | 4.8 | 0.00 | 0.23 | 0.23 | 67 | 1014.4 |
| 20260503015204 | -17 | 2 | 0.0 | 0.0 | 0.00 | 1.93 | 1.93 | 1017.4 | |
| 20260503014704 | 12 | 258 | 3.2 | 3.2 | 0.00 | 0.23 | 0.23 | 66 | 1014.3 |
| 20260503014700 | -17 | 1 | 0.0 | 0.0 | 0.00 | 1.93 | 1.93 | 1017.2 | |
| 20260503014528 | 13 | 124 | 1.6 | 3.2 | 0.00 | 0.18 | 0.00 | 91 | 1013.0 |
| 20260503014203 | 12 | 264 | 3.2 | 4.8 | 0.00 | 0.23 | 0.23 | 66 | 1014.4 |
| 20260503014158 | -17 | 356 | 0.0 | 0.0 | 0.00 | 1.93 | 1.93 | 1017.0 | |
| 20260503013704 | 12 | 260 | 3.2 | 4.8 | 0.00 | 0.23 | 0.23 | 66 | 1014.3 |
| 20260503013655 | -17 | 353 | 0.0 | 0.0 | 0.00 | 1.93 | 1.93 | 1017.2 | |
| 20260503013153 | -17 | 357 | 0.0 | 0.0 | 0.00 | 1.93 | 1.93 | 1016.9 | |
| 20260503013025 | 13 | 124 | 3.2 | 4.8 | 0.00 | 0.18 | 0.00 | 91 | 1013.1 |
| 20260503012704 | 12 | 255 | 1.6 | 3.2 | 0.00 | 0.23 | 0.23 | 64 | 1013.9 |
| 20260503012649 | -17 | 358 | 0.0 | 0.0 | 0.00 | 1.93 | 1.93 | 1016.9 | |
| 20260503012203 | 12 | 253 | 1.6 | 3.2 | 0.00 | 0.23 | 0.23 | 64 | 1013.9 |
| 20260503012147 | -17 | 6 | 0.0 | 0.0 | 0.00 | 1.93 | 1.93 | 1016.7 | |
| 20260503011643 | -17 | 355 | 0.0 | 0.0 | 0.00 | 1.93 | 1.93 | 1016.8 | |
| 20260503011524 | 13 | 134 | 1.6 | 4.8 | 0.00 | 0.18 | 0.00 | 91 | 1013.4 |
| 20260503011204 | 12 | 269 | 1.6 | 4.8 | 0.00 | 0.23 | 0.23 | 63 | 1014.0 |
| 20260503011140 | -17 | 6 | 0.0 | 0.0 | 0.00 | 1.93 | 1.93 | 1016.6 | |
| 20260503010636 | -17 | 358 | 0.0 | 0.0 | 0.00 | 1.93 | 1.93 | 1016.5 | |
| 20260503010204 | 12 | 321 | 3.2 | 4.8 | 0.00 | 0.23 | 0.23 | 62 | 1014.1 |
| 20260503010134 | -17 | 56 | 0.0 | 0.0 | 0.00 | 1.93 | 1.93 | 1016.6 | |
| 20260503010027 | 13 | 126 | 3.2 | 6.4 | 0.00 | 0.18 | 0.00 | 90 | 1013.4 |
| 20260503005704 | 12 | 230 | 1.6 | 3.2 | 0.00 | 0.23 | 0.23 | 63 | 1014.0 |
| 20260503005631 | -17 | 1 | 0.0 | 0.0 | 0.00 | 1.93 | 1.93 | 1016.4 | |
| 20260503005128 | -17 | 359 | 0.0 | 0.0 | 0.00 | 1.93 | 1.93 | 1016.3 | |
| 20260503004704 | 12 | 276 | 1.6 | 4.8 | 0.00 | 0.23 | 0.23 | 63 | 1013.9 |
| 20260503004624 | -17 | 14 | 1.6 | 1.6 | 0.00 | 1.93 | 1.93 | 1016.2 | |
| 20260503004519 | 13 | 136 | 4.8 | 8.0 | 0.00 | 0.18 | 0.00 | 90 | 1013.6 |
| 20260503004204 | 12 | 234 | 1.6 | 4.8 | 0.00 | 0.23 | 0.23 | 61 | 1014.0 |
| 20260503004123 | -17 | 17 | 1.6 | 1.6 | 0.00 | 1.93 | 1.93 | 1016.0 | |
| 20260503003619 | -17 | 19 | 0.0 | 1.6 | 0.00 | 1.93 | 1.93 | 1015.8 | |
| 20260503003203 | 12 | 280 | 3.2 | 4.8 | 0.00 | 0.23 | 0.23 | 60 | 1013.6 |
| 20260503003116 | -17 | 73 | 0.0 | 1.6 | 0.00 | 1.93 | 1.93 | 1015.8 | |
| 20260503003019 | 13 | 149 | 4.8 | 11.3 | 0.00 | 0.18 | 0.00 | 90 | 1013.7 |
| 20260503002613 | -17 | 39 | 0.0 | 0.0 | 0.00 | 1.93 | 1.93 | 1015.7 | |
| 20260503002203 | 12 | 264 | 3.2 | 4.8 | 0.00 | 0.23 | 0.23 | 57 | 1013.5 |
| 20260503002110 | -17 | 15 | 1.6 | 3.2 | 0.00 | 1.93 | 1.93 | 1015.5 | |
| 20260503001704 | 12 | 46 | 3.2 | 4.8 | 0.00 | 0.23 | 0.23 | 56 | 1013.6 |
| 20260503001606 | -17 | 325 | 0.0 | 0.0 | 0.00 | 1.93 | 1.93 | 1015.5 | |
| 20260503001516 | 13 | 124 | 6.4 | 9.7 | 0.00 | 0.18 | 0.00 | 90 | 1013.7 |
| 20260503001103 | -17 | 9 | 1.6 | 1.6 | 0.00 | 1.93 | 1.93 | 1015.4 | |
| 20260503000703 | 12 | 257 | 1.6 | 8.0 | 0.00 | 0.23 | 0.23 | 53 | 1013.5 |
| 20260503000601 | -17 | 333 | 1.6 | 3.2 | 0.00 | 1.93 | 1.93 | 1015.4 | |
| 20260503000204 | 12 | 264 | 3.2 | 4.8 | 0.00 | 0.23 | 0.23 | 52 | 1013.4 |
| 20260503000058 | -17 | 12 | 1.6 | 1.6 | 0.00 | 1.93 | 1.93 | 1015.3 | |
| 20260503000026 | 14 | 118 | 1.6 | 4.8 | 0.00 | 0.18 | 0.00 | 90 | 1013.8 |
| 20260502235703 | 12 | 247 | 1.6 | 4.8 | 0.00 | 0.23 | 0.23 | 52 | 1013.1 |
| 20260502235554 | -17 | 76 | 3.2 | 4.8 | 0.00 | 1.93 | 1.93 | 1015.1 | |
| 20260502235203 | 12 | 255 | 3.2 | 8.0 | 0.00 | 0.23 | 0.23 | 52 | 1013.3 |
| 20260502235052 | -17 | 12 | 3.2 | 3.2 | 0.00 | 1.93 | 1.93 | 1015.3 | |
| 20260502234704 | 12 | 248 | 3.2 | 8.0 | 0.00 | 0.23 | 0.23 | 49 | 1013.4 |
| 20260502234548 | -17 | 352 | 1.6 | 3.2 | 0.00 | 1.93 | 1.93 | 1015.0 | |
| 20260502234512 | 14 | 128 | 3.2 | 6.4 | 0.00 | 0.18 | 0.00 | 90 | 1014.0 |
| 20260502234046 | -17 | 307 | 6.4 | 9.7 | 0.00 | 1.93 | 1.93 | 1015.0 | |
| 20260502233704 | 12 | 339 | 3.2 | 8.0 | 0.00 | 0.23 | 0.23 | 50 | 1013.1 |
| 20260502233546 | -17 | 29 | 8.0 | 11.3 | 0.00 | 1.93 | 1.93 | 1014.8 | |
| 20260502233203 | 12 | 301 | 4.8 | 9.7 | 0.00 | 0.23 | 0.23 | 51 | 1013.1 |
| 20260502233043 | -17 | 280 | 1.6 | 3.2 | 0.00 | 1.93 | 1.93 | 1014.8 | |
| 20260502233008 | 15 | 123 | 4.8 | 9.7 | 0.00 | 0.18 | 0.00 | 90 | 1014.1 |
| 20260502232539 | -17 | 13 | 0.0 | 0.0 | 0.00 | 1.93 | 1.93 | 1014.9 | |
| 20260502232204 | 12 | 343 | 3.2 | 8.0 | 0.00 | 0.23 | 0.23 | 56 | 1013.1 |
| 20260502232037 | -17 | 22 | 3.2 | 3.2 | 0.00 | 1.93 | 1.93 | 1014.7 | |
| 20260502231703 | 12 | 269 | 1.6 | 4.8 | 0.00 | 0.23 | 0.23 | 57 | 1013.3 |
| 20260502231533 | -17 | 46 | 8.0 | 11.3 | 0.00 | 1.93 | 1.93 | 1014.7 | |
| 20260502231506 | 15 | 130 | 4.8 | 8.0 | 0.00 | 0.18 | 0.00 | 90 | 1014.2 |
| 20260502231203 | 12 | 270 | 3.2 | 4.8 | 0.00 | 0.23 | 0.23 | 56 | 1013.3 |
| 20260502231032 | -17 | 47 | 4.8 | 9.7 | 0.00 | 1.93 | 1.93 | 1014.7 | |
| 20260502230704 | 12 | 268 | 3.2 | 8.0 | 0.00 | 0.23 | 0.23 | 57 | 1013.0 |
| 20260502230530 | -17 | 69 | 4.8 | 8.0 | 0.00 | 1.93 | 1.93 | 1014.6 | |
| 20260502230204 | 12 | 288 | 3.2 | 4.8 | 0.00 | 0.23 | 0.23 | 58 | 1013.1 |
| 20260502230028 | -17 | 37 | 3.2 | 3.2 | 0.00 | 1.93 | 1.93 | 1014.6 | |
| 20260502230006 | 15 | 144 | 1.6 | 8.0 | 0.00 | 0.18 | 0.00 | 89 | 1014.2 |
| 20260502225703 | 13 | 359 | 4.8 | 11.3 | 0.00 | 0.23 | 0.23 | 57 | 1013.1 |
| 20260502225523 | -17 | 335 | 4.8 | 4.8 | 0.00 | 1.93 | 1.93 | 1014.7 | |
| 20260502225203 | 13 | 284 | 3.2 | 8.0 | 0.00 | 0.23 | 0.23 | 59 | 1013.1 |
| 20260502225020 | -17 | 348 | 3.2 | 4.8 | 0.00 | 1.93 | 1.93 | 1014.8 | |
| 20260502224704 | 13 | 259 | 3.2 | 4.8 | 0.00 | 0.23 | 0.23 | 60 | 1013.0 |
| 20260502224516 | -17 | 20 | 3.2 | 3.2 | 0.00 | 1.93 | 1.93 | 1014.5 | |
| 20260502224504 | 15 | 141 | 3.2 | 6.4 | 0.00 | 0.18 | 0.00 | 89 | 1014.4 |
| 20260502224014 | -17 | 327 | 1.6 | 1.6 | 0.00 | 1.93 | 1.93 | 1014.5 | |
| 20260502223703 | 13 | 332 | 4.8 | 12.9 | 0.00 | 0.23 | 0.23 | 56 | 1013.1 |
| 20260502223511 | -17 | 229 | 1.6 | 3.2 | 0.00 | 1.93 | 1.93 | 1014.5 | |
| 20260502223204 | 13 | 35 | 3.2 | 12.9 | 0.00 | 0.23 | 0.23 | 57 | 1013.3 |
| 20260502223009 | -17 | 25 | 1.6 | 3.2 | 0.00 | 1.93 | 1.93 | 1014.3 | |
| 20260502222704 | 13 | 264 | 3.2 | 8.0 | 0.00 | 0.23 | 0.23 | 55 | 1013.4 |
| 20260502222506 | -17 | 305 | 3.2 | 3.2 | 0.00 | 1.93 | 1.93 | 1014.3 | |
| 20260502222203 | 13 | 298 | 1.6 | 11.3 | 0.00 | 0.23 | 0.23 | 55 | 1013.4 |
| 20260502222003 | -17 | 313 | 3.2 | 3.2 | 0.00 | 1.93 | 1.93 | 1014.3 | |
| 20260502221703 | 13 | 358 | 3.2 | 9.7 | 0.00 | 0.23 | 0.23 | 55 | 1013.4 |
| 20260502221500 | 15 | 142 | 3.2 | 6.4 | 0.03 | 0.18 | 0.00 | 89 | 1014.7 |
| 20260502221458 | -17 | 335 | 1.6 | 1.6 | 0.00 | 1.93 | 1.93 | 1014.4 | |
| 20260502220955 | -17 | 297 | 1.6 | 1.6 | 0.00 | 1.93 | 1.93 | 1014.2 | |
| 20260502220704 | 13 | 318 | 3.2 | 11.3 | 0.00 | 0.23 | 0.23 | 56 | 1013.3 |
| 20260502220451 | -17 | 149 | 1.6 | 4.8 | 0.00 | 1.93 | 1.93 | 1014.3 | |
| 20260502220204 | 13 | 15 | 3.2 | 12.9 | 0.00 | 0.23 | 0.23 | 59 | 1013.2 |
| 20260502220110 | 15 | 173 | 3.2 | 6.4 | 0.03 | 0.18 | 0.00 | 88 | 1014.6 |
| 20260502215948 | -17 | 105 | 4.8 | 9.7 | 0.00 | 1.93 | 1.93 | 1014.0 | |
| 20260502215703 | 13 | 320 | 4.8 | 12.9 | 0.00 | 0.23 | 0.23 | 61 | 1013.4 |
| 20260502215445 | -17 | 224 | 4.8 | 9.7 | 0.00 | 1.93 | 1.93 | 1013.9 | |
| 20260502214942 | -17 | 127 | 6.4 | 9.7 | 0.00 | 1.93 | 1.93 | 1014.2 | |
| 20260502214558 | 15 | 160 | 3.2 | 8.0 | 0.03 | 0.18 | 0.18 | 88 | 1014.6 |
| 20260502214439 | -17 | 51 | 6.4 | 9.7 | 0.00 | 1.93 | 1.93 | 1013.9 | |
| 20260502214203 | 13 | 8 | 1.6 | 8.0 | 0.00 | 0.23 | 0.23 | 63 | 1013.1 |
| 20260502213936 | -17 | 309 | 8.0 | 12.9 | 0.00 | 1.93 | 1.93 | 1013.9 | |
| 20260502213704 | 13 | 224 | 4.8 | 11.3 | 0.00 | 0.23 | 0.23 | 62 | 1013.2 |
| 20260502213433 | -17 | 25 | 1.6 | 1.6 | 0.00 | 1.93 | 1.93 | 1013.7 | |
| 20260502213204 | 14 | 356 | 3.2 | 8.0 | 0.00 | 0.23 | 0.23 | 62 | 1013.0 |
| 20260502213058 | 15 | 182 | 6.4 | 11.3 | 0.00 | 0.15 | 0.15 | 88 | 1014.7 |
| 20260502212932 | -17 | 114 | 4.8 | 8.0 | 0.00 | 1.93 | 1.93 | 1013.8 | |
| 20260502212703 | 13 | 0 | 6.4 | 14.5 | 0.00 | 0.23 | 0.23 | 61 | 1013.0 |
| 20260502212430 | -17 | 292 | 6.4 | 8.0 | 0.00 | 1.93 | 1.93 | 1013.7 | |
| 20260502211927 | -17 | 347 | 4.8 | 4.8 | 0.00 | 1.93 | 1.93 | 1013.8 | |
| 20260502211703 | 14 | 22 | 4.8 | 12.9 | 0.00 | 0.23 | 0.23 | 60 | 1012.9 |
| 20260502211558 | 15 | 182 | 6.4 | 12.9 | 0.00 | 0.15 | 0.15 | 87 | 1014.9 |
| 20260502211423 | -17 | 343 | 4.8 | 8.0 | 0.00 | 1.93 | 1.93 | 1013.6 | |
| 20260502211203 | 14 | 9 | 3.2 | 11.3 | 0.00 | 0.23 | 0.23 | 61 | 1012.9 |
| 20260502210920 | -17 | 120 | 6.4 | 12.9 | 0.00 | 1.93 | 1.93 | 1013.9 | |
| 20260502210704 | 14 | 355 | 4.8 | 9.7 | 0.00 | 0.23 | 0.23 | 60 | 1012.8 |
| 20260502210417 | -17 | 346 | 1.6 | 1.6 | 0.00 | 1.93 | 1.93 | 1013.7 | |
| 20260502210204 | 14 | 70 | 1.6 | 8.0 | 0.00 | 0.23 | 0.23 | 59 | 1012.7 |
| 20260502210122 | 15 | 159 | 8.0 | 16.1 | 0.00 | 0.15 | 0.15 | 87 | 1015.0 |
| 20260502205914 | -17 | 318 | 4.8 | 4.8 | 0.00 | 1.93 | 1.93 | 1013.8 | |
| 20260502205410 | -17 | 301 | 3.2 | 4.8 | 0.00 | 1.93 | 1.93 | 1013.9 | |
| 20260502205203 | 13 | 315 | 3.2 | 19.3 | 0.00 | 0.23 | 0.23 | 59 | 1012.9 |
| 20260502204908 | -17 | 328 | 4.8 | 4.8 | 0.00 | 1.93 | 1.93 | 1013.8 | |
| 20260502204557 | 15 | 150 | 8.0 | 16.1 | 0.00 | 0.15 | 0.15 | 86 | 1015.0 |
| 20260502204404 | -17 | 284 | 1.6 | 1.6 | 0.00 | 1.93 | 1.93 | 1013.8 | |
| 20260502204203 | 13 | 341 | 4.8 | 11.3 | 0.00 | 0.23 | 0.23 | 57 | 1012.9 |
| 20260502203902 | -17 | 84 | 4.8 | 9.7 | 0.00 | 1.93 | 1.93 | 1013.8 | |
| 20260502203703 | 13 | 340 | 4.8 | 19.3 | 0.00 | 0.23 | 0.23 | 58 | 1012.8 |
| 20260502203359 | 23 | 125 | 3.2 | 3.2 | 0.00 | 1.93 | 1.93 | 58 | 1013.7 |
| 20260502203203 | 13 | 24 | 4.8 | 20.9 | 0.00 | 0.23 | 0.23 | 56 | 1012.8 |
| 20260502203056 | 15 | 152 | 8.0 | 12.9 | 0.00 | 0.15 | 0.15 | 86 | 1014.8 |
| 20260502202855 | 24 | 288 | 3.2 | 3.2 | 0.00 | 1.93 | 1.93 | 54 | 1013.9 |
| 20260502202703 | 14 | 21 | 9.7 | 20.9 | 0.00 | 0.23 | 0.23 | 57 | 1012.8 |
| 20260502202352 | 23 | 320 | 3.2 | 4.8 | 0.00 | 1.93 | 1.93 | 57 | 1013.8 |
| 20260502202204 | 14 | 14 | 6.4 | 11.3 | 0.00 | 0.23 | 0.23 | 56 | 1012.9 |
| 20260502201850 | 22 | 40 | 4.8 | 8.0 | 0.00 | 1.93 | 1.93 | 60 | 1013.9 |
| 20260502201703 | 14 | 249 | 6.4 | 12.9 | 0.00 | 0.23 | 0.23 | 57 | 1012.8 |
| 20260502201556 | 15 | 138 | 9.7 | 16.1 | 0.00 | 0.15 | 0.15 | 86 | 1014.7 |
| 20260502201346 | -17 | 318 | 6.4 | 9.7 | 0.00 | 1.93 | 1.93 | 1014.0 | |
| 20260502201203 | 14 | 343 | 3.2 | 12.9 | 0.00 | 0.23 | 0.23 | 61 | 1012.8 |
| 20260502200842 | 22 | 20 | 4.8 | 8.0 | 0.00 | 1.93 | 1.93 | 63 | 1014.0 |
| 20260502200704 | 14 | 22 | 8.0 | 14.5 | 0.00 | 0.23 | 0.23 | 60 | 1013.0 |